Tracking 30308 objects as of 19-Apr-2025
HD Live streaming from Space Station
objects crossing your sky now

IRIDIUM 33 DEB

Track IRIDIUM 33 DEB now!
10-day predictions


NORAD ID: 34693
Int'l Code: 1997-051KQ
Perigee: 568.1 km
Apogee: 590.3 km
Inclination: 86.3 °
Period: 96.1 minutes
Semi major axis: 6950 km
RCS: 0.01 m2 (small)
Launch date: September 14, 1997
Source: United States (US)
Launch site: TYURATAM MISSILE AND SPACE COMPLEX (TTMTR)

Note: This is SATELLITE DEBRIS
Your satellite tracking list
Your tracking list is empty




NASA's NSSDC Master Catalog

Two Line Element Set (TLE):
1 34693U 97051KQ  25107.90741771  .00049991  00000-0  41636-2 0  9992
2 34693  86.3210  58.7348 0015988 145.6987 283.5566 14.98320200853137
Source of the keplerian elements: AFSPC